Starlink 31138

operational
NORAD ID: 58806 Int'l Des: 2024-012 Owner: SPXS Country: US Constellation: starlink
LEOCIRCULAR

Über Starlink 31138

Beschreibung wird geladen...

Live-Position

3D-Globus wird geladen...

Nächste Überflüge

Höhenverlauf

Altitude vs Time

uPlot chart will show altitude changes over time

Zweizeiliger Elementsatz

1 58806U 24012V 25351.49441669 .00001348 00000-0 58495-4 0 9996
2 58806 43.0005 269.5810 0000523 302.7268 57.3533 15.27579886108665
Epoch: 17. Dez. 2025 • Age: 13 hours

Aktueller Status

Höhe 485.3 km
Geschwindigkeit 7.63 km/s
Subsatellitenpunkt 38.15°N, 133.95°W
Startdatum 15. Jan. 2024
Alter 1.9 years
Typ internet

Technische Details

Klassifizierung Payload
Masse 730.00 kg
Trockenmasse 700.00 kg
Gesamtmasse 730.00 kg
Länge 0.30 m
Durchmesser 4.10 m
Spannweite 29.00 m
Form Box + pan
Hersteller SPXS
Bus-Typ Starlink V2M
Phasenstatus In Orbit
Besitzer/Staat SPXS/US

Große Konstellationen

Loading constellations...